Roswell, NM

2:32 AM MST on February 28, 2017 (GMT -0700)
Roswell Industrial

Weather History for KROW - January, 2013

Change the Weather History Date:

Saturday, January 5, 2013

  Actual Average Record
Temperature  
Mean Temperature 37 °F 39 °F  
Max Temperature 54 °F 54 °F 80 °F (1994)
Min Temperature 20 °F 25 °F -4 °F (1971)
Degree Days  
Heating Degree Days 28 26  
Month to date heating degree days 170 130  
Since 1 July heating degree days 1327 1540  
Cooling Degree Days 0 0  
Month to date cooling degree days 0 0  
Year to date cooling degree days 0 0  
Moisture  
Dew Point 23 °F    
Average Humidity 63    
Maximum Humidity 100    
Minimum Humidity 26    
Precipitation  
Precipitation 0.00 in 0.01 in 0.21 in (1960)
Month to date precipitation 0.07 0.07  
Year to date precipitation 0.07 0.07  
Sea Level Pressure  
Sea Level Pressure 30.25 in    
Wind  
Wind Speed 4 mph (NW)    
Max Wind Speed 13 mph    
Max Gust Speed 16 mph    
Visibility 5 miles    
Events Fog    
T = Trace of Precipitation, MM = Missing Value Source: NWS Daily Summary

Daily Weather History Graph

Daily Weather History Graph

Search for Another Location

Airport or City:

Trip Planner

Search our weather history database for the weather conditions in past years. The results will help you decide how hot, cold, wet, or windy it might be!

Date:

Astronomy

Jan. 05, 2013 Rise Set
Actual Time 7:02 AM MST 5:05 PM MST
Civil Twilight 6:35 AM MST 5:32 PM MST
Nautical Twilight 6:04 AM MST 6:03 PM MST
Astronomical Twilight 5:34 AM MST 6:33 PM MST
Moon 12:21 AM MST (1/5) 11:47 AM MST (1/5)
Length of Visible Light 10h 57m
Length of Day
10h 02m
Last Quarter, 43% of the Moon is Illuminated
Jan 5
Last Quarter
Jan 11
New
Jan 18
First Quarter
Jan 26
Full
Feb 3
Last Quarter

Hourly Weather History & Observations

Time (MST) Temp. Windchill Dew Point Humidity Pressure Visibility Wind Dir Wind Speed Gust Speed Precip Events Conditions
12:51 AM 25.0 °F 17.1 °F 24.1 °F 96% 30.20 in 0.5 mi South 6.9 mph - N/A Fog Light Freezing Fog
1:26 AM 23.0 °F 17.0 °F 23.0 °F 100% 30.17 in 1.0 mi SE 4.6 mph - N/A   Overcast
1:35 AM 23.0 °F 14.7 °F 23.0 °F 100% 30.17 in 0.8 mi SE 6.9 mph - N/A   Mist
1:51 AM 24.1 °F 17.0 °F 23.0 °F 96% 30.21 in 0.5 mi SE 5.8 mph - N/A Fog Light Freezing Fog
2:12 AM 23.0 °F 15.8 °F 23.0 °F 100% 30.18 in 0.2 mi SSE 5.8 mph - N/A Fog Light Freezing Fog
2:31 AM 23.0 °F 18.4 °F 21.2 °F 93% 30.17 in 0.2 mi East 3.5 mph - N/A Fog Light Freezing Fog
3:51 AM 21.9 °F - 21.0 °F 96% 30.22 in 0.2 mi Calm Calm - N/A Fog Light Freezing Fog
5:51 AM 21.9 °F - 21.0 °F 96% 30.25 in 0.2 mi Calm Calm - N/A Fog Light Freezing Fog
6:51 AM 21.0 °F 14.6 °F 19.0 °F 92% 30.26 in 0.2 mi West 4.6 mph - N/A Fog Light Freezing Fog
6:58 AM 21.2 °F 16.4 °F 19.4 °F 93% 30.21 in 0.5 mi WNW 3.5 mph - N/A Fog Light Freezing Fog
7:10 AM 19.4 °F 14.3 °F 19.4 °F 100% 30.22 in 0.2 mi NW 3.5 mph - N/A Fog Light Freezing Fog
8:51 AM 21.9 °F 14.5 °F 21.0 °F 96% 30.29 in 0.2 mi NNE 5.8 mph - N/A Fog Light Freezing Fog
9:51 AM 25.0 °F 18.1 °F 24.1 °F 96% 30.30 in 0.5 mi North 5.8 mph - N/A   Overcast
10:08 AM 26.6 °F 20.0 °F 24.8 °F 93% 30.25 in 1.8 mi NNW 5.8 mph - N/A   Overcast
10:25 AM 28.4 °F 24.6 °F 26.6 °F 93% 30.25 in 1.8 mi North 3.5 mph - N/A   Scattered Clouds
10:33 AM 28.4 °F - 26.6 °F 93% 30.26 in 8.0 mi Calm Calm - N/A   Partly Cloudy
11:51 AM 36.0 °F - 28.9 °F 76% 30.23 in 10.0 mi Calm Calm - N/A   Clear
12:51 PM 46.0 °F - 26.1 °F 46% 30.18 in 10.0 mi Calm Calm - N/A   Clear
1:51 PM 51.1 °F - 21.0 °F 31% 30.17 in 10.0 mi Calm Calm - N/A   Clear
2:51 PM 54.0 °F - 19.9 °F 26% 30.18 in 10.0 mi WNW 3.5 mph - N/A   Clear
3:51 PM 54.0 °F - 19.9 °F 26% 30.19 in 10.0 mi Calm Calm - N/A   Clear
4:51 PM 48.0 °F - 25.0 °F 41% 30.22 in 10.0 mi SW 4.6 mph - N/A   Clear
5:51 PM 39.0 °F 34.8 °F 27.0 °F 62% 30.27 in 10.0 mi WSW 5.8 mph - N/A   Clear
6:51 PM 34.0 °F 27.2 °F 26.1 °F 73% 30.31 in 10.0 mi SSW 8.1 mph - N/A   Clear
7:51 PM 37.0 °F 31.0 °F 21.9 °F 54% 30.32 in 10.0 mi NNW 8.1 mph - N/A   Clear
8:51 PM 35.1 °F 28.6 °F 21.9 °F 59% 30.35 in 10.0 mi North 8.1 mph - N/A   Clear
10:51 PM 30.0 °F 22.4 °F 19.9 °F 66% 30.39 in 10.0 mi NNE 8.1 mph - N/A   Clear
11:51 PM 30.0 °F 23.2 °F 18.0 °F 61% 30.39 in 10.0 mi North 6.9 mph - N/A   Clear